Regional Weather Roundup
Issued by NWS

Home | Current Version | Previous Version | Text Only | Print | Product List | Glossary Off
Versions: 1 2 3 4 5 6 7 8 9 10 11 12 13 14 15 16 17 18 19 20 21 22 23 24 25 26 27 28 29 30 31 32 33 34 35 36 37 38 39 40 41 42 43 44 45 46 47 48 49 50

000
ASUS45 KABQ 291501
RWRNM
NEW MEXICO REGIONAL WEATHER ROUNDUP
NATIONAL WEATHER SERVICE ALBUQUERQUE NM
900 AM MDT FRI MAY 29 2015

NOTE: "FAIR" MEANS FEW OR NO CLOUDS BELOW 12,000 FEET AGL WITH NO
       SIGNIFICANT WEATHER OR OBSTRUCTIONS TO VISION.

      THIS PRODUCT IS RELEASED AS TWO VERSIONS.  ONE VERSION NEAR
      THE TOP OF THE HOUR CONTAINING PRELIMINARY DATA FROM ALBUQUERQUE
      AND OTHER STATIONS.  A FINAL VERSION WITH ADDITIONAL DATA IS
      ISSUED ABOUT 10 MINUTES AFTER THE HOUR.

NMZ501-503-504-510>518-291600-
NORTHWEST PLATEAU/NORTHCENTRAL MOUNTAINS

CITY           SKY/WX    TMP DP  RH WIND       PRES   REMARKS
FARMINGTON     SUNNY     59  40  49 SE3       30.20R
SANTA FE       SUNNY     61  35  37 N16       30.21R
TAOS           SUNNY     55  30  38 N6        30.27R
ANGEL FIRE     FAIR      50  33  53 CALM      30.31S

$$
NMZ402-403-502-505>509-291600-
WESTCENTRAL MOUNTAINS/SOUTHWEST MOUNTAINS

CITY           SKY/WX    TMP DP  RH WIND       PRES   REMARKS
GALLUP         SUNNY     60  36  40 CALM      30.25R
GRANTS         PTSUNNY   60  34  36 N6        30.26S
SILVER CITY      N/A     75  19  12 NW9       30.18R

$$
NMZ407-409-411-412-291600-
SOUTHERN DESERTS

CITY           SKY/WX    TMP DP  RH WIND       PRES   REMARKS
LORDSBURG      FAIR      72  25  17 CALM      30.12R
DEMING         SUNNY     74  24  15 W6        30.10S
HOLLOMAN AFB   SUNNY     75  28  17 NE1       30.04R
ALAMOGORDO     SUNNY     72  23  16 CALM      30.06R
T OR C         PTSUNNY   73  25  16 N3        30.12S

$$
NMZ519>523-291600-
CENTRAL VALLEYS/CENTRAL HIGHLANDS

CITY           SKY/WX    TMP DP  RH WIND       PRES   REMARKS
ALBUQUERQUE    PTSUNNY   68  38  33 N7        30.17R
DOUBLE EAGLE   PTSUNNY   66  39  37 NE6       30.20R
MORIARTY ARPT  FAIR      61  37  41 N5        30.22S
CLINES CORNERS SUNNY     64  36  35 NW10      30.22S
BELEN          FAIR      67  36  31 N6        30.17R
SOCORRO        NOT AVBL

$$
NMZ524>526-539-540-291600-
SOUTHCENTRAL MOUNTAINS

CITY           SKY/WX    TMP DP  RH WIND       PRES   REMARKS
RUIDOSO        NOT AVBL

$$
NMZ527>531-291600-
NORTHEAST HIGHLANDS/NORTHEAST PLAINS

CITY           SKY/WX    TMP DP  RH WIND       PRES   REMARKS
LAS VEGAS      SUNNY     60  42  51 NE7       30.21S
RATON          SUNNY     62  44  51 NE10      30.18S
CLAYTON        SUNNY     64  50  60 N16       30.13S

$$
NMZ532>537-291600-
EASTCENTRAL PLAINS

CITY           SKY/WX    TMP DP  RH WIND       PRES   REMARKS
TUCUMCARI      SUNNY     67  51  56 CALM      30.09S
CANNON AFB     SUNNY     65  54  68 NE6       30.09S
CLOVIS AIRPORT SUNNY     64  50  59 N8        30.08R

$$
NMZ028-029-538-291600-
SOUTHEAST PLAINS

CITY           SKY/WX    TMP DP  RH WIND       PRES   REMARKS
ROSWELL        SUNNY     69  54  58 N8        30.07R
ARTESIA        SUNNY     68  54  60 N9        30.07S
CARLSBAD       SUNNY     69  55  60 N12       30.05R
HOBBS          SUNNY     68  55  64 NW6       30.07R


$$


USA.gov is the U.S. government's official web portal to all federal, state and local government web resources and services.